EW7469 Weather Reports


Display with metric or nautical units.
time (UTC)temp
F
wind
direction
speed
MPH
gust
MPH
rain 1hr
in
rain 24hr
in
rain mn
in
humidity
%
barometer
mb
20260904193525 92 181 2.0 7.0 0.00 0.00 0.00 63 1014.2
20260904193042 92 136 1.0 7.0 0.00 0.00 0.00 62 1014.3
20260904192530 92 160 3.0 11.0 0.00 0.01 0.00 64 1014.3
20260904192026 91 113 2.0 11.0 0.00 0.01 0.00 65 1014.3
20260904191522 91 159 3.0 9.0 0.00 0.01 0.00 65 1014.4
20260904191054 92 124 2.0 10.0 0.00 0.01 0.00 65 1014.4
20260904190529 92 124 2.0 10.0 0.00 0.01 0.00 65 1014.4
20260904190027 93 124 3.0 9.0 0.00 0.01 0.00 63 1014.5
20260904185534 93 141 5.0 13.0 0.00 0.01 0.00 64 1014.5
20260904185052 92 176 5.0 13.0 0.00 0.01 0.00 64 1014.5
20260904184610 92 105 2.0 9.0 0.00 0.01 0.00 65 1014.8
20260904184023 92 89 4.0 10.0 0.00 0.01 0.00 65 1014.8
20260904183558 91 67 3.0 10.0 0.00 0.01 0.00 68 1014.8
20260904183034 90 162 4.0 9.0 0.00 0.01 0.00 68 1014.8
20260904182530 90 103 2.0 6.0 0.00 0.27 0.00 69 1014.8
20260904182027 90 132 3.0 6.0 0.00 0.27 0.00 70 1014.8
20260904181532 90 149 3.0 9.0 0.00 0.27 0.00 67 1015.2
20260904181025 91 127 4.0 9.0 0.00 0.27 0.00 66 1015.2
20260904180541 92 41 2.0 5.0 0.00 0.27 0.00 66 1015.2
20260904180031 92 124 2.0 5.0 0.00 0.27 0.00 63 1015.2
20260904175546 93 115 1.0 5.0 0.00 0.27 0.00 64 1015.2
20260904175034 93 68 1.0 7.0 0.00 0.27 0.00 64 1015.2
20260904174529 93 75 3.0 7.0 0.00 0.27 0.00 62 1015.3
20260904174024 94 151 2.0 5.0 0.00 0.27 0.00 63 1015.3
20260904173531 94 143 2.0 6.0 0.00 0.27 0.00 61 1015.3
20260904173026 94 173 3.0 6.0 0.00 0.27 0.00 53 1015.4
20260904172539 93 188 1.0 7.0 0.00 0.28 0.00 55 1015.4
20260904172034 93 243 3.0 7.0 0.00 0.28 0.00 52 1015.4
20260904171551 93 191 3.0 7.0 0.00 0.28 0.00 55 1015.5
20260904171028 93 227 4.0 10.0 0.00 0.28 0.00 56 1015.5
20260904170557 93 169 3.0 10.0 0.00 0.28 0.00 57 1015.5
20260904170051 92 214 3.0 6.0 0.00 0.28 0.00 57 1015.7
20260904165554 92 191 3.0 6.0 0.00 0.28 0.00 60 1015.7
20260904165028 91 214 3.0 6.0 0.00 0.28 0.00 58 1015.7
20260904164523 91 179 3.0 6.0 0.00 0.28 0.00 61 1015.8
20260904164039 91 230 2.0 6.0 0.00 0.28 0.00 59 1015.8
20260904163533 91 162 2.0 7.0 0.00 0.28 0.00 59 1015.8
20260904163029 91 212 3.0 7.0 0.00 0.28 0.00 58 1015.8
20260904162525 91 219 3.0 10.0 0.00 0.28 0.00 62 1015.8
20260904162033 91 232 2.0 10.0 0.00 0.28 0.00 62 1015.8
20260904161530 90 269 3.0 7.0 0.00 0.28 0.00 63 1016.2
20260904161026 90 279 4.0 6.0 0.00 0.28 0.00 63 1016.2
20260904160544 90 228 3.0 6.0 0.00 0.28 0.00 64 1016.2
20260904160032 90 134 3.0 6.0 0.00 0.28 0.00 64 1016.3
20260904155526 89 179 3.0 6.0 0.00 0.28 0.00 65 1016.3
20260904155034 89 188 3.0 7.0 0.00 0.28 0.00 65 1016.3
20260904154532 89 129 3.0 7.0 0.00 0.28 0.00 63 1016.2
20260904154028 89 207 2.0 6.0 0.00 0.28 0.00 65 1016.2
20260904153537 88 185 2.0 6.0 0.00 0.28 0.00 65 1016.2
20260904153034 88 190 3.0 9.0 0.00 0.28 0.00 69 1016.3
20260904152530 88 146 3.0 9.0 0.00 0.28 0.00 69 1016.3
20260904152026 88 158 2.0 6.0 0.00 0.28 0.00 70 1016.3
20260904151522 88 248 2.0 5.0 0.00 0.28 0.00 71 1016.1
20260904151039 87 155 1.0 5.0 0.00 0.28 0.00 70 1016.1
20260904150532 87 192 3.0 5.0 0.00 0.28 0.00 70 1016.1
20260904150027 87 203 3.0 5.0 0.00 0.28 0.00 71 1016.2
20260904145534 87 162 2.0 9.0 0.00 0.28 0.00 71 1016.2
20260904145049 87 202 2.0 10.0 0.00 0.28 0.00 72 1016.2
20260904144533 87 222 3.0 10.0 0.00 0.28 0.00 70 1015.9
20260904144028 87 184 4.0 9.0 0.00 0.28 0.00 72 1015.9
20260904143525 86 205 2.0 9.0 0.00 0.28 0.00 75 1015.9
20260904143054 86 229 5.0 8.0 0.00 0.28 0.00 74 1015.8
20260904142529 86 179 4.0 9.0 0.00 0.28 0.00 76 1015.8
20260904142024 86 177 2.0 6.0 0.00 0.28 0.00 79 1015.8
20260904141533 86 249 2.0 9.0 0.00 0.28 0.00 80 1015.6
20260904141030 85 165 4.0 9.0 0.00 0.28 0.00 81 1015.5
20260904140524 85 262 3.0 9.0 0.00 0.28 0.00 81 1015.5
20260904140033 85 168 3.0 7.0 0.00 0.28 0.00 83 1015.4
20260904135527 84 231 3.0 6.0 0.00 0.28 0.00 87 1015.4
20260904135024 84 246 2.0 6.0 0.00 0.28 0.00 87 1015.4
20260904134539 84 224 2.0 7.0 0.00 0.28 0.00 88 1015.5
20260904134032 83 257 3.0 7.0 0.00 0.28 0.00 91 1015.5
20260904133528 83 325 3.0 7.0 0.00 0.28 0.00 92 1015.5
20260904133038 83 250 2.0 6.0 0.00 0.28 0.00 96 1015.4
20260904132532 82 240 4.0 6.0 0.00 0.28 0.00 99 1015.4
20260904132048 82 245 2.0 4.0 0.00 0.28 0.00 100 1015.4
20260904131536 82 211 2.0 4.0 0.00 0.28 0.00 100 1015.3
20260904131033 81 231 2.0 6.0 0.00 0.28 0.00 100 1015.3
20260904130548 81 233 2.0 6.0 0.00 0.28 0.00 100 1015.3
20260904130022 81 184 3.0 5.0 0.00 0.28 0.00 100 1015.2
20260904125539 80 174 2.0 5.0 0.00 0.28 0.00 100 1015.2
20260904125034 80 251 2.0 5.0 0.00 0.28 0.00 100 1015.2
20260904124531 80 238 2.0 5.0 0.00 0.28 0.00 100 1015.1
20260904124027 80 158 2.0 5.0 0.00 0.28 0.00 100 1015.1
20260904123531 79 243 3.0 4.0 0.00 0.28 0.00 100 1015.1
20260904123028 79 183 1.0 4.0 0.00 0.28 0.00 100 1015.0
20260904122603 79 195 3.0 4.0 0.00 0.28 0.00 100 1015.0
20260904122051 79 214 3.0 4.0 0.00 0.28 0.00 100 1015.0
20260904121523 79 229 1.0 5.0 0.00 0.28 0.00 100 1014.8
20260904121033 78 186 2.0 5.0 0.00 0.28 0.00 100 1014.8
20260904120530 78 198 1.0 3.0 0.00 0.28 0.00 100 1014.8
20260904120055 77 199 1.0 3.0 0.00 0.28 0.00 100 1014.8
20260904115529 77 199 0.0 3.0 0.00 0.28 0.00 100 1014.8
20260904115054 77 198 0.0 3.0 0.00 0.28 0.00 100 1014.8
20260904114549 77 164 0.0 0.0 0.00 0.28 0.00 100 1014.6
20260904114031 77 159 0.0 0.0 0.00 0.28 0.00 100 1014.6
20260904113525 77 159 0.0 0.0 0.00 0.28 0.00 100 1014.6
20260904113023 77 159 0.0 0.0 0.00 0.28 0.00 100 1014.3
20260904112535 77 159 0.0 0.0 0.00 0.28 0.00 100 1014.3
20260904112051 77 159 0.0 0.0 0.00 0.28 0.00 100 1014.3
20260904111528 77 159 0.0 0.0 0.00 0.28 0.00 100 1014.3
20260904111036 77 159 0.0 0.0 0.00 0.28 0.00 100 1014.3
20260904110533 77 159 0.0 0.0 0.00 0.28 0.00 100 1014.3
20260904110028 77 159 0.0 0.0 0.00 0.28 0.00 100 1014.3
20260904105534 77 159 0.0 0.0 0.00 0.28 0.00 100 1014.3
20260904105030 77 159 0.0 0.0 0.00 0.28 0.00 100 1014.3
20260904104547 77 159 0.0 0.0 0.00 0.28 0.00 100 1014.2
20260904104022 77 159 0.0 0.0 0.00 0.28 0.00 100 1014.2
20260904103531 77 159 0.0 0.0 0.00 0.28 0.00 100 1014.2
20260904103028 77 159 0.0 0.0 0.00 0.28 0.00 100 1014.1
20260904102524 77 159 0.0 0.0 0.00 0.28 0.00 100 1014.1
20260904102041 77 159 0.0 0.0 0.00 0.28 0.00 100 1014.1
20260904101539 77 159 0.0 0.0 0.00 0.28 0.00 100 1013.8
20260904101035 77 159 0.0 0.0 0.00 0.28 0.00 100 1013.8
20260904100530 77 159 0.0 0.0 0.00 0.28 0.00 100 1013.8
20260904100026 77 159 0.0 0.0 0.00 0.28 0.00 100 1013.7
20260904095526 77 159 0.0 0.0 0.00 0.28 0.00 100 1013.7
20260904095055 77 159 0.0 0.0 0.00 0.28 0.00 100 1013.7
20260904094530 77 159 0.0 0.0 0.00 0.28 0.00 100 1013.7
20260904094027 77 159 0.0 0.0 0.00 0.28 0.00 100 1013.7
20260904093523 77 159 0.0 0.0 0.00 0.28 0.00 100 1013.7
20260904093035 77 159 0.0 0.0 0.00 0.28 0.00 100 1013.6
20260904092533 77 159 0.0 0.0 0.00 0.28 0.00 100 1013.6
20260904092030 77 159 0.0 0.0 0.00 0.28 0.00 100 1013.6
20260904091527 77 159 0.0 0.0 0.00 0.28 0.00 100 1013.3
20260904091036 77 159 0.0 0.0 0.00 0.28 0.00 100 1013.3
20260904090553 77 159 0.0 0.0 0.00 0.28 0.00 100 1013.3
20260904090027 77 159 0.0 0.0 0.00 0.28 0.00 100 1013.5
20260904085537 77 159 0.0 0.0 0.00 0.28 0.00 100 1013.5
20260904085052 78 159 0.0 0.0 0.00 0.28 0.00 100 1013.5
20260904084529 78 159 0.0 0.0 0.00 0.28 0.00 100 1013.3
20260904084037 78 159 0.0 0.0 0.00 0.28 0.00 100 1013.3
20260904083529 77 159 0.0 0.0 0.00 0.28 0.00 100 1013.3
20260904083025 78 159 0.0 0.0 0.00 0.28 0.00 100 1013.3
20260904082542 78 159 0.0 0.0 0.00 0.28 0.00 100 1013.3
20260904082038 78 159 0.0 0.0 0.00 0.28 0.00 100 1013.3
20260904081535 78 159 0.0 0.0 0.00 0.28 0.00 100 1013.2
20260904081030 78 159 0.0 0.0 0.00 0.28 0.00 100 1013.2
20260904080526 78 159 0.0 0.0 0.00 0.28 0.00 100 1013.2
20260904080032 78 159 0.0 0.0 0.00 0.28 0.00 100 1013.2
20260904075549 78 159 0.0 0.0 0.00 0.28 0.00 100 1013.2
20260904075032 78 159 0.0 0.0 0.00 0.28 0.00 100 1013.2
20260904074549 78 159 0.0 0.0 0.00 0.28 0.00 100 1013.2
20260904074036 78 159 0.0 0.0 0.00 0.28 0.00 100 1013.2
20260904073550 78 159 0.0 0.0 0.00 0.28 0.00 100 1013.2
20260904073034 78 159 0.0 0.0 0.00 0.28 0.00 100 1013.2
20260904072529 78 159 0.0 0.0 0.00 0.28 0.00 100 1013.2
20260904072025 78 159 0.0 0.0 0.00 0.28 0.00 100 1013.2
20260904071522 78 159 0.0 0.0 0.00 0.28 0.00 100 1013.4
20260904071054 78 159 0.0 0.0 0.00 0.28 0.00 100 1013.4
20260904070529 78 159 0.0 0.0 0.00 0.28 0.00 100 1013.4
20260904070038 78 159 0.0 0.0 0.00 0.28 0.00 100 1013.5
20260904065534 78 159 0.0 0.0 0.00 0.28 0.00 100 1013.5
20260904065031 78 159 0.0 0.0 0.00 0.28 0.00 100 1013.5
20260904064529 78 159 0.0 0.0 0.00 0.28 0.00 100 1013.7
20260904064026 78 159 0.0 0.0 0.00 0.28 0.00 100 1013.7
20260904063532 78 159 0.0 0.0 0.00 0.28 0.00 100 1013.7
20260904063028 78 159 0.0 0.0 0.00 0.28 0.00 100 1013.8
20260904062524 78 159 0.0 0.0 0.00 0.28 0.00 100 1013.8
20260904062033 78 159 0.0 0.0 0.00 0.28 0.00 100 1013.8
20260904061527 78 159 0.0 0.0 0.00 0.28 0.00 100 1013.8
20260904061023 78 159 0.0 0.0 0.00 0.28 0.00 100 1013.8
20260904060532 78 159 0.0 0.0 0.00 0.28 0.00 100 1013.8
20260904060029 78 159 0.0 0.0 0.00 0.28 0.00 100 1014.0
20260904055524 78 159 0.0 0.0 0.00 0.28 0.00 100 1014.0
20260904055054 78 159 0.0 0.0 0.00 0.28 0.00 100 1014.0
20260904054526 78 159 0.0 0.0 0.00 0.28 0.00 100 1014.2
20260904054035 78 159 0.0 0.0 0.00 0.28 0.00 100 1014.2
20260904053532 78 159 0.0 0.0 0.00 0.28 0.00 100 1014.2
20260904053026 78 159 0.0 0.0 0.00 0.28 0.00 100 1014.3
20260904052536 78 159 0.0 0.0 0.00 0.28 0.00 100 1014.3
20260904052031 78 159 0.0 0.0 0.00 0.28 0.00 100 1014.3
20260904051528 78 159 0.0 0.0 0.00 0.28 0.00 100 1014.3
20260904051037 78 159 0.0 0.0 0.00 0.28 0.00 100 1014.3
20260904050533 78 159 0.0 0.0 0.00 0.28 0.00 100 1014.3
20260904050030 78 159 0.0 0.0 0.00 0.28 0.00 100 1014.2
20260904045546 78 159 0.0 0.0 0.00 0.28 0.00 100 1014.2
20260904045034 78 159 0.0 0.0 0.00 0.28 0.00 100 1014.2
20260904044528 78 159 0.0 0.0 0.00 0.28 0.00 100 1014.3
20260904044036 78 159 0.0 0.0 0.00 0.28 0.00 100 1014.3
20260904043534 78 159 0.0 0.0 0.00 0.28 0.00 100 1014.3
20260904043030 78 159 0.0 0.0 0.00 0.28 0.00 100 1014.3
20260904042527 78 159 0.0 0.0 0.00 0.28 0.00 100 1014.3
20260904042023 78 159 0.0 0.0 0.00 0.28 0.00 100 1014.3
20260904041534 78 159 0.0 0.0 0.00 0.28 0.00 100 1014.3
20260904041030 78 159 0.0 0.0 0.00 0.28 0.00 100 1014.3
20260904040546 78 159 0.0 0.0 0.00 0.28 0.00 100 1014.3
20260904040041 78 159 0.0 0.0 0.00 0.28 0.28 100 1014.3
20260904035531 78 159 0.0 0.0 0.00 0.28 0.28 100 1014.3
20260904035027 78 159 0.0 0.0 0.00 0.28 0.28 100 1014.3
20260904034523 78 159 0.0 0.0 0.00 0.28 0.28 100 1014.3
20260904034033 78 159 0.0 0.0 0.00 0.28 0.28 99 1014.3
20260904033529 78 159 0.0 0.0 0.00 0.28 0.28 99 1014.3
20260904033024 78 159 0.0 0.0 0.00 0.28 0.28 99 1014.3
20260904032533 78 159 0.0 0.0 0.00 0.28 0.28 99 1014.3
20260904032029 78 159 0.0 0.0 0.00 0.28 0.28 99 1014.3
20260904031525 78 159 0.0 0.0 0.00 0.28 0.28 98 1014.4
20260904031041 78 159 0.0 0.0 0.00 0.28 0.28 98 1014.4
20260904030531 78 159 0.0 0.0 0.00 0.28 0.28 98 1014.4
20260904030025 78 159 0.0 0.0 0.00 0.28 0.28 98 1014.6
20260904025535 78 159 0.0 0.0 0.00 0.28 0.28 97 1014.6
20260904025051 78 159 0.0 1.0 0.00 0.28 0.28 97 1014.6
20260904024526 78 159 0.0 1.0 0.00 0.28 0.28 97 1014.6
20260904024034 78 159 0.0 2.0 0.00 0.28 0.28 97 1014.6
20260904023550 79 159 0.0 2.0 0.00 0.28 0.28 96 1014.6
20260904023026 79 159 0.0 3.0 0.00 0.28 0.28 96 1014.5
20260904022554 79 159 0.0 3.0 0.00 0.28 0.28 96 1014.5
20260904022028 79 159 0.0 2.0 0.00 0.28 0.28 96 1014.5
20260904021600 79 158 1.0 3.0 0.00 0.28 0.28 96 1014.7
20260904021055 79 158 0.0 3.0 0.00 0.28 0.28 96 1014.7
20260904020530 79 188 1.0 2.0 0.00 0.28 0.28 95 1014.7
20260904020047 79 188 1.0 2.0 0.00 0.28 0.28 95 1014.7
20260904015523 79 188 0.0 1.0 0.00 0.28 0.28 95 1014.7
20260904015031 79 188 0.0 2.0 0.00 0.28 0.28 94 1014.7
20260904014527 79 188 1.0 2.0 0.00 0.28 0.28 94 1014.5
20260904014034 79 188 1.0 2.0 0.00 0.28 0.28 94 1014.5
20260904013530 79 188 0.0 2.0 0.00 0.28 0.28 94 1014.5
20260904013037 79 188 0.0 1.0 0.00 0.28 0.28 93 1014.3
20260904012552 79 188 0.0 1.0 0.00 0.28 0.28 93 1014.3
20260904012026 80 188 0.0 1.0 0.00 0.28 0.28 93 1014.3
20260904011538 80 188 0.0 2.0 0.00 0.28 0.28 93 1014.2
20260904011053 80 188 0.0 2.0 0.00 0.28 0.28 93 1014.2
20260904010529 80 188 0.0 1.0 0.00 0.28 0.28 92 1014.2
20260904010036 80 188 0.0 1.0 0.00 0.28 0.28 92 1013.8
20260904005554 80 188 0.0 1.0 0.00 0.28 0.28 92 1013.8
20260904005028 80 188 0.0 1.0 0.00 0.28 0.28 92 1013.8
20260904004531 80 188 0.0 1.0 0.00 0.28 0.28 92 1013.8
20260904004047 81 188 0.0 1.0 0.00 0.28 0.28 92 1013.8
20260904003545 81 188 0.0 2.0 0.00 0.28 0.28 92 1013.8
20260904003034 81 188 0.0 4.0 0.00 0.28 0.28 92 1014.1
20260904002530 81 208 2.0 4.0 0.00 0.28 0.28 93 1014.1
20260904002024 81 132 1.0 4.0 0.00 0.28 0.28 93 1014.1
20260904001538 81 162 1.0 4.0 0.00 0.28 0.28 94 1014.0
20260904001052 81 87 0.0 4.0 0.00 0.28 0.28 94 1014.0
20260904000526 81 146 2.0 5.0 0.00 0.28 0.28 95 1014.0
20260904000035 81 147 1.0 5.0 0.00 0.28 0.28 96 1013.6
20260903235532 81 101 0.0 4.0 0.00 0.28 0.28 95 1013.6
20260903235029 81 131 0.0 4.0 0.00 0.28 0.28 95 1013.6
20260903234536 81 134 1.0 5.0 0.00 0.28 0.28 95 1013.4
20260903234032 81 165 1.0 5.0 0.00 0.28 0.28 94 1013.4
20260903233529 82 163 0.0 2.0 0.00 0.28 0.28 94 1013.4
20260903233057 82 110 0.0 1.0 0.00 0.28 0.28 94 1013.8
20260903232529 82 113 0.0 1.0 0.00 0.28 0.28 94 1013.8
20260903232037 82 113 0.0 4.0 0.00 0.28 0.28 93 1013.8
20260903231534 82 113 1.0 5.0 0.00 0.28 0.28 93 1013.8
20260903231030 82 142 0.0 5.0 0.00 0.28 0.28 93 1013.8
20260903230527 82 162 1.0 4.0 0.00 0.28 0.28 92 1013.8
20260903230031 82 105 2.0 4.0 0.00 0.28 0.28 92 1013.3
20260903225528 82 136 1.0 2.0 0.00 0.28 0.28 92 1013.3
20260903225045 82 134 1.0 2.0 0.00 0.28 0.28 92 1013.3
20260903224532 82 32 1.0 3.0 0.00 0.28 0.28 92 1013.5
20260903224048 82 87 2.0 3.0 0.00 0.28 0.28 91 1013.5
20260903223535 82 172 2.0 3.0 0.00 0.28 0.28 91 1013.5
20260903223030 82 136 0.0 3.0 0.00 0.28 0.28 91 1013.5
20260903222527 82 89 1.0 2.0 0.00 0.28 0.28 92 1013.5
20260903222055 83 58 0.0 5.0 0.00 0.28 0.28 92 1013.5
20260903221533 82 141 2.0 5.0 0.00 0.28 0.28 91 1013.2
20260903221027 83 126 1.0 3.0 0.00 0.28 0.28 91 1013.2
20260903220536 83 162 1.0 3.0 0.00 0.28 0.28 90 1013.2
20260903220029 83 132 1.0 3.0 0.00 0.28 0.28 89 1013.1
20260903215537 83 136 1.0 10.0 0.00 0.28 0.28 88 1013.1
20260903215033 83 139 1.0 10.0 0.00 0.28 0.28 87 1013.1
20260903214528 83 133 3.0 5.0 0.00 0.28 0.28 87 1013.3
20260903214035 83 86 1.0 5.0 0.00 0.28 0.28 86 1013.3
20260903213532 84 199 2.0 6.0 0.00 0.28 0.28 88 1013.3
20260903213027 84 171 0.0 6.0 0.00 0.28 0.28 91 1013.4
20260903212535 84 150 2.0 3.0 0.00 0.28 0.28 91 1013.4
20260903212032 83 58 1.0 4.0 0.00 0.28 0.28 93 1013.4
20260903211047 83 67 2.0 7.0 0.00 0.28 0.28 96 1012.6
20260903210523 83 120 1.0 7.0 0.00 0.28 0.28 97 1012.6
20260903210038 82 110 2.0 6.0 0.00 0.28 0.28 98 1012.2
20260903205532 82 96 2.0 5.0 0.00 0.28 0.28 99 1012.2
20260903205027 82 91 1.0 5.0 0.00 0.28 0.28 100 1012.2
20260903204525 82 92 1.0 5.0 0.00 0.28 0.28 100 1012.2
20260903204041 82 90 1.0 6.0 0.00 0.28 0.28 100 1012.2
20260903203529 82 68 2.0 6.0 0.00 0.28 0.28 100 1012.2
20260903203025 82 46 2.0 4.0 0.00 0.28 0.28 100 1012.9
20260903202554 82 94 2.0 4.0 0.00 0.28 0.28 100 1012.9
20260903202050 82 96 1.0 6.0 0.00 0.28 0.28 100 1012.9
20260903201525 81 74 2.0 6.0 0.00 0.28 0.28 100 1013.2
20260903201034 81 118 1.0 6.0 0.00 0.28 0.28 100 1013.2
20260903200549 81 190 2.0 5.0 0.00 0.28 0.28 100 1013.2
20260903200038 81 105 1.0 5.0 0.00 0.28 0.28 100 1013.2
20260903195534 81 70 1.0 4.0 0.00 0.28 0.28 100 1013.2
20260903195030 82 48 2.0 4.0 0.00 0.28 0.28 100 1013.2
20260903194527 82 132 1.0 4.0 0.00 0.28 0.28 100 1013.2
20260903194036 82 67 2.0 5.0 0.01 0.28 0.28 100 1013.2